Location: ??
(34.9170°N, 135.5016°E)
Time: 17:52:31
(UTC+00:00)

Cosmos 2180 Rocket - Pass Details

Date: 29 October 2020
Orbit: 953 x 1006 km, 82.9° (Epoch: 29 November)

Event Time Altitude Azimuth Distance (km) Brightness Sun altitude
Rises 19:11:07 0° 348° (NNW) 3,680 7.4 -26.3°
Reaches altitude 10° 19:13:41 10° 344° (NNW) 2,721 6.7 -25.8°
Enters shadow 19:14:19 13° 342° (NNW) 2,490 6.5 -25.6°
Exits shadow 19:20:07 53° 254° (WSW) 1,163 4.5 -24.5°
Drops below altitude 10° 19:25:39 10° 193° (SSW) 2,677 6.7 -23.3°
Sets 19:28:10 0° 189° (S) 3,615 7.4 -22.8°
